Overview Statistics Trail Chart Weather Telemetry Raw packets
 

This is the latest recevied weather packets stored in our database for station/object NO9B. If no packets are shown the sender has not sent any weather packets the latest 10 day(s).

<< 1 2 3 4 5 6 >>
Time Temp. Humidity Pressure Rain* Wind** Luminosity Snow
1788655000 22.22° C 88% 1018.3 hPa 0 mm - 0 W/m² -
1788654696 22.22° C 88% 1018.5 hPa 0 mm - 0 W/m² -
1788654390 22.22° C 87% 1018.4 hPa 0 mm - 0 W/m² -
1788654085 22.22° C 87% 1018.4 hPa 0 mm - 1 W/m² -
1788653781 22.22° C 87% 1018.5 hPa 0 mm - 2 W/m² -
1788653480 22.22° C 87% 1018.5 hPa 0 mm - 2 W/m² -
1788653176 22.22° C 87% 1018.4 hPa 0 mm - 4 W/m² -
1788652884 22.78° C 88% 1018.6 hPa 0 mm - 6 W/m² -
1788652570 22.78° C 88% 1018.4 hPa 0 mm - 7 W/m² -
1788652266 22.78° C 88% 1018.8 hPa 0 mm - 8 W/m² -
1788651961 22.78° C 88% 1018.6 hPa 0 mm - 8 W/m² -
1788651656 22.78° C 89% 1018.5 hPa 0 mm - 9 W/m² -
1788651356 22.78° C 88% 1018.5 hPa 0 mm - 12 W/m² -
1788651050 22.78° C 89% 1018.5 hPa 0 mm - 10 W/m² -
1788650746 22.78° C 89% 1018.4 hPa 0 mm - 8 W/m² -
1788650441 22.78° C 88% 1018.7 hPa 0 mm - 5 W/m² -
1788650136 22.78° C 89% 1018.7 hPa 0 mm - 7 W/m² -
1788649833 22.78° C 89% 1018.6 hPa 0 mm - 15 W/m² -
1788649532 22.78° C 89% 1018.5 hPa 0 mm - 14 W/m² -
1788649231 22.78° C 87% 1018.4 hPa 0 mm - 30 W/m² -
1788648926 22.78° C 88% 1018.4 hPa 0 mm - 15 W/m² -
1788648621 22.78° C 87% 1018.3 hPa 0 mm - 15 W/m² -
1788648321 22.78° C 86% 1018.4 hPa 0 mm - 25 W/m² -
1788648020 23.33° C 86% 1018.5 hPa 0 mm - 27 W/m² -
1788647718 23.33° C 86% 1018.4 hPa 0 mm - 32 W/m² -

* Rain latest hour (hover to see other rain measurements)
** Current wind speed in m/s (hover to see current wind gust speed)